Regional Weather Roundup
Issued by NWS

Home | Current Version | Previous Version | Graphics & Text | Print | Product List | Glossary On
Versions: 1 2 3 4 5 6 7 8 9 10 11 12 13 14 15 16 17 18 19 20 21 22 23 24 25 26 27 28
000
ASUS45 KCYS 231910
RWRWY

WYOMING REGIONAL WEATHER ROUNDUP
NATIONAL WEATHER SERVICE CHEYENNE WY
1200 PM MST THU NOV 23 2017

NOTE:  "FAIR" INDICATES FEW OR NO CLOUDS BELOW 12,000 FEET
WITH NO SIGNIFICANT WEATHER AND/OR OBSTRUCTIONS TO VISIBILITY.

WYZ001-232000-
YELLOWSTONE NATIONAL PARK

CITY           SKY/WX    TMP DP  RH WIND       PRES   REMARKS
LK YELLOWSTONE   N/A     47  36  65 VRB5      30.18F
W YELLOWSTONE  NOT AVBL

$$
WYZ002>013-054>058-071-098>099-232000-
NORTHERN WYOMING

CITY           SKY/WX    TMP DP  RH WIND       PRES   REMARKS
JACKSON        FAIR      53  38  56 S16       30.18F
CODY           FAIR      62  34  35 SW9G17    29.95F
GREYBULL       FAIR      45  38  76 CALM      29.93F
WORLAND        FAIR      47  38  71 E5        29.95F
SHERIDAN       FAIR      61  38  42 VRB6      29.85F
BUFFALO        FAIR      58  31  35 W7        29.92F
GILLETTE         N/A     60  35  39 MISG      29.87F
HULETT         FAIR      61  36  39 SW16      29.90S
NEWCASTLE      FAIR      59  34  38 S13G20    29.95F

$$
WYZ014>020-022>026-101>103-232000-
CENTRAL WYOMING

CITY           SKY/WX    TMP DP  RH WIND       PRES   REMARKS
BIG PINEY      FAIR      44  37  76 E5        30.24F
PINEDALE       FAIR      43  37  81 E3        30.25F
DUBOIS         FAIR      54  32  43 MISG      30.12F
LANDER         FAIR      51  37  58 VRB5      30.05F
RIVERTON       FAIR      49  36  61 SW7       30.06F
CASPER         FAIR      57  37  47 SW21      30.05F
DOUGLAS        FAIR      63  37  38 W17       29.99F

$$
WYZ021-027>030-104>119-232000-
SOUTHERN WYOMING

CITY           SKY/WX    TMP DP  RH WIND       PRES   REMARKS
EVANSTON       FAIR      54  37  52 SW15      30.29F
KEMMERER       FAIR      52  37  58 W14       30.27F
FORT BRIDGER   FAIR      57  36  45 W16G24    30.30F
ROCK SPRINGS   FAIR      53  34  48 SW20      30.23F
DIXON          FAIR      56  37  48 SW13      30.31F
RAWLINS        FAIR      53  37  54 SW18G25   30.21F
SARATOGA       FAIR      54  32  43 MISG      30.25F
LARAMIE        FAIR      59  31  34 W28G37    30.17F
CHEYENNE       FAIR      63  31  30 W30G44    30.11F
TORRINGTON     FAIR      68  39  34 W24G31    29.98F
PINE BLUFFS    FAIR      63  30  29 W16G25    30.07F

$$




USA.gov is the U.S. government's official web portal to all federal, state and local government web resources and services.